| time (UTC) | temp F | wind direction | speed MPH | gust MPH | rain 1hr in | rain 24hr in | rain mn in | humidity % | barometer mb |
| 20260506071022 | 55 | 111 | 0.0 | 0.0 | 0.00 | 0.00 | 0.00 | 94 | 1009.8 |
| 20260506061604 | 56 | 111 | 0.0 | 0.0 | 0.00 | 0.00 | 0.00 | 90 | 1009.7 |
| 20260506060533 | 57 | 111 | 0.0 | 0.0 | 0.00 | 0.00 | 0.00 | 89 | 1009.7 |
| 20260506050513 | 61 | 111 | 0.0 | 1.0 | 0.00 | 0.00 | 0.00 | 83 | 1009.9 |
| 20260506044452 | 62 | 82 | 0.0 | 0.0 | 0.00 | 0.00 | 0.00 | 81 | 1010.1 |
| 20260506043503 | 62 | 82 | 0.0 | 0.0 | 0.00 | 0.00 | 0.00 | 82 | 1010.0 |
| 20260506042448 | 62 | 83 | 0.0 | 0.0 | 0.00 | 0.00 | 0.00 | 81 | 1009.9 |
| 20260506041501 | 62 | 143 | 0.0 | 0.0 | 0.00 | 0.00 | 0.00 | 81 | 1009.9 |
| 20260506035357 | 62 | 331 | 0.0 | 2.0 | 0.00 | 0.00 | 0.00 | 80 | 1010.0 |
| 20260506034408 | 62 | 125 | 0.0 | 0.0 | 0.00 | 0.00 | 0.00 | 78 | 1010.0 |
| 20260506033344 | 62 | 98 | 0.0 | 0.0 | 0.00 | 0.00 | 0.00 | 78 | 1009.8 |
| 20260506032329 | 62 | 129 | 0.0 | 0.0 | 0.00 | 0.00 | 0.00 | 78 | 1009.8 |
| 20260506030224 | 63 | 96 | 0.0 | 0.0 | 0.00 | 0.00 | 0.00 | 77 | 1009.8 |
| 20260506024021 | 63 | 78 | 0.0 | 0.0 | 0.00 | 0.00 | 0.00 | 75 | 1009.9 |
| 20260506023040 | 64 | 78 | 0.0 | 0.0 | 0.00 | 0.00 | 0.00 | 74 | 1009.9 |
| 20260506022021 | 64 | 30 | 0.0 | 3.0 | 0.00 | 0.00 | 0.00 | 74 | 1009.8 |
| 20260506020951 | 64 | 248 | 0.0 | 5.0 | 0.00 | 0.00 | 0.00 | 73 | 1009.8 |
| 20260506015921 | 65 | 119 | 0.0 | 5.0 | 0.00 | 0.00 | 0.00 | 72 | 1009.7 |
| 20260506014908 | 65 | 113 | 0.0 | 0.0 | 0.00 | 0.00 | 0.00 | 72 | 1009.6 |
| 20260506013913 | 65 | 72 | 0.0 | 0.0 | 0.00 | 0.00 | 0.00 | 71 | 1009.5 |
| 20260506011815 | 65 | 83 | 0.0 | 2.0 | 0.00 | 0.00 | 0.00 | 71 | 1009.2 |
| 20260506005633 | 65 | 146 | 0.0 | 2.0 | 0.00 | 0.00 | 0.00 | 70 | 1008.9 |
| 20260506004639 | 65 | 330 | 0.0 | 0.0 | 0.00 | 0.00 | 0.00 | 70 | 1008.9 |
| 20260506001319 | 66 | 77 | 0.0 | 2.0 | 0.00 | 0.00 | 0.00 | 68 | 1008.5 |
| 20260506000338 | 67 | 77 | 0.0 | 1.0 | 0.00 | 0.00 | 0.00 | 67 | 1008.4 |
| 20260505235324 | 67 | 49 | 0.0 | 3.0 | 0.00 | 0.00 | 0.00 | 66 | 1008.3 |
| 20260505234347 | 67 | 179 | 0.0 | 5.0 | 0.00 | 0.00 | 0.00 | 65 | 1008.1 |
| 20260505233326 | 68 | 176 | 0.0 | 5.0 | 0.00 | 0.00 | 0.00 | 64 | 1007.9 |
| 20260505232309 | 69 | 74 | 0.0 | 3.0 | 0.00 | 0.00 | 0.00 | 63 | 1007.8 |
| 20260505231237 | 69 | 76 | 0.0 | 2.0 | 0.00 | 0.00 | 0.00 | 63 | 1007.7 |
| 20260505230301 | 70 | 102 | 0.0 | 1.0 | 0.00 | 0.00 | 0.00 | 62 | 1007.5 |
| 20260505224139 | 71 | 84 | 0.0 | 4.0 | 0.00 | 0.00 | 0.00 | 59 | 1007.3 |
| 20260505223137 | 72 | 90 | 0.0 | 4.0 | 0.00 | 0.00 | 0.00 | 59 | 1007.5 |
| 20260505222128 | 73 | 100 | 0.0 | 3.0 | 0.00 | 0.00 | 0.00 | 57 | 1007.5 |
| 20260505221113 | 73 | 78 | 0.0 | 3.0 | 0.00 | 0.00 | 0.00 | 57 | 1007.5 |
| 20260505213750 | 73 | 68 | 0.0 | 11.0 | 0.00 | 0.00 | 0.00 | 57 | 1007.4 |
| 20260505212751 | 73 | 148 | 1.0 | 11.0 | 0.00 | 0.00 | 0.00 | 58 | 1007.3 |
| 20260505211807 | 73 | 80 | 1.0 | 6.0 | 0.00 | 0.00 | 0.00 | 58 | 1007.3 |
| 20260505210737 | 74 | 77 | 1.0 | 6.0 | 0.00 | 0.00 | 0.00 | 58 | 1007.1 |
| 20260505205727 | 74 | 36 | 2.0 | 6.0 | 0.00 | 0.00 | 0.00 | 58 | 1007.1 |
| 20260505204716 | 74 | 101 | 1.0 | 6.0 | 0.00 | 0.00 | 0.00 | 57 | 1007.4 |
| 20260505203729 | 75 | 65 | 1.0 | 7.0 | 0.00 | 0.00 | 0.00 | 56 | 1007.2 |
| 20260505202727 | 75 | 62 | 2.0 | 7.0 | 0.00 | 0.00 | 0.00 | 57 | 1007.3 |
| 20260505200533 | 75 | 91 | 2.0 | 6.0 | 0.00 | 0.00 | 0.00 | 57 | 1007.5 |
| 20260505195558 | 75 | 108 | 1.0 | 6.0 | 0.00 | 0.00 | 0.00 | 57 | 1007.7 |
| 20260505194537 | 75 | 108 | 1.0 | 6.0 | 0.00 | 0.00 | 0.00 | 57 | 1007.8 |
| 20260505191237 | 75 | 72 | 2.0 | 6.0 | 0.00 | 0.00 | 0.00 | 59 | 1008.2 |
| 20260505190256 | 76 | 68 | 1.0 | 5.0 | 0.00 | 0.00 | 0.00 | 57 | 1008.4 |
| 20260505185257 | 76 | 68 | 1.0 | 5.0 | 0.00 | 0.00 | 0.00 | 58 | 1008.4 |
| 20260505184314 | 76 | 17 | 1.0 | 7.0 | 0.00 | 0.00 | 0.00 | 56 | 1008.5 |
| 20260505183328 | 76 | 134 | 1.0 | 7.0 | 0.00 | 0.00 | 0.00 | 55 | 1008.6 |
| 20260505182324 | 77 | 77 | 1.0 | 6.0 | 0.00 | 0.00 | 0.00 | 56 | 1008.5 |
| 20260505181314 | 77 | 1 | 1.0 | 6.0 | 0.00 | 0.00 | 0.00 | 57 | 1008.5 |
| 20260505180304 | 77 | 108 | 2.0 | 7.0 | 0.00 | 0.00 | 0.00 | 54 | 1008.5 |
| 20260505175329 | 77 | 49 | 1.0 | 7.0 | 0.00 | 0.00 | 0.00 | 53 | 1008.6 |
| 20260505174330 | 78 | 66 | 1.0 | 6.0 | 0.00 | 0.00 | 0.00 | 55 | 1008.6 |
| 20260505173258 | 78 | 15 | 2.0 | 6.0 | 0.00 | 0.00 | 0.00 | 55 | 1008.6 |
| 20260505172253 | 78 | 6 | 1.0 | 5.0 | 0.00 | 0.00 | 0.00 | 53 | 1008.7 |
| 20260505171315 | 78 | 64 | 1.0 | 5.0 | 0.00 | 0.00 | 0.00 | 52 | 1008.8 |
| 20260505170249 | 78 | 100 | 1.0 | 5.0 | 0.00 | 0.00 | 0.00 | 54 | 1008.9 |
| 20260505165312 | 77 | 65 | 2.0 | 8.0 | 0.00 | 0.00 | 0.00 | 53 | 1009.0 |
| 20260505164258 | 77 | 6 | 2.0 | 8.0 | 0.00 | 0.00 | 0.00 | 56 | 1009.1 |
| 20260505163320 | 77 | 350 | 2.0 | 7.0 | 0.00 | 0.00 | 0.00 | 53 | 1009.1 |
| 20260505162333 | 77 | 344 | 1.0 | 7.0 | 0.00 | 0.00 | 0.00 | 53 | 1009.2 |
| 20260505161333 | 77 | 73 | 0.0 | 5.0 | 0.00 | 0.00 | 0.00 | 52 | 1009.6 |
| 20260505160350 | 77 | 77 | 0.0 | 5.0 | 0.00 | 0.00 | 0.00 | 56 | 1009.6 |
| 20260505153327 | 76 | 64 | 0.0 | 7.0 | 0.00 | 0.00 | 0.00 | 55 | 1010.0 |
| 20260505152344 | 75 | 84 | 1.0 | 7.0 | 0.00 | 0.00 | 0.00 | 55 | 1010.0 |
| 20260505151334 | 75 | 166 | 0.0 | 3.0 | 0.00 | 0.00 | 0.00 | 55 | 1010.2 |
| 20260505150324 | 74 | 70 | 1.0 | 4.0 | 0.00 | 0.00 | 0.00 | 57 | 1010.3 |
| 20260505140146 | 70 | 71 | 1.0 | 6.0 | 0.00 | 0.00 | 0.00 | 66 | 1010.2 |
| 20260505123929 | 61 | 122 | 0.0 | 1.0 | 0.00 | 0.00 | 0.00 | 85 | 1010.1 |
| 20260505122937 | 58 | 126 | 0.0 | 0.0 | 0.00 | 0.00 | 0.00 | 89 | 1010.2 |
| 20260505121929 | 57 | 125 | 0.0 | 0.0 | 0.00 | 0.00 | 0.00 | 90 | 1010.5 |
| 20260505120924 | 57 | 189 | 0.0 | 0.0 | 0.00 | 0.00 | 0.00 | 92 | 1010.4 |
| 20260505115922 | 56 | 188 | 0.0 | 0.0 | 0.00 | 0.00 | 0.00 | 94 | 1010.4 |
| 20260505114944 | 55 | 189 | 0.0 | 0.0 | 0.00 | 0.00 | 0.00 | 98 | 1010.6 |
| 20260505113955 | 54 | 188 | 0.0 | 0.0 | 0.00 | 0.00 | 0.00 | 98 | 1010.5 |
| 20260505112937 | 52 | 188 | 0.0 | 0.0 | 0.00 | 0.00 | 0.00 | 99 | 1010.6 |
| 20260505111946 | 50 | 189 | 0.0 | 0.0 | 0.00 | 0.00 | 0.00 | 99 | 1010.6 |
| 20260505110915 | 48 | 189 | 0.0 | 0.0 | 0.00 | 0.00 | 0.00 | 98 | 1010.7 |
| 20260505101708 | 44 | 188 | 0.0 | 0.0 | 0.00 | 0.00 | 0.00 | 98 | 1009.8 |
| 20260505100653 | 44 | 188 | 0.0 | 0.0 | 0.00 | 0.00 | 0.00 | 98 | 1009.8 |
| 20260505095705 | 44 | 188 | 0.0 | 0.0 | 0.00 | 0.00 | 0.00 | 98 | 1009.7 |
| 20260505093549 | 44 | 188 | 0.0 | 0.0 | 0.00 | 0.00 | 0.00 | 97 | 1009.6 |
| 20260505092542 | 44 | 188 | 0.0 | 0.0 | 0.00 | 0.00 | 0.00 | 97 | 1009.6 |
| 20260505091555 | 44 | 188 | 0.0 | 0.0 | 0.00 | 0.00 | 0.00 | 97 | 1009.6 |
| 20260505090607 | 44 | 188 | 0.0 | 0.0 | 0.00 | 0.00 | 0.00 | 97 | 1009.6 |
| 20260505085544 | 44 | 188 | 0.0 | 0.0 | 0.00 | 0.00 | 0.00 | 97 | 1009.5 |
| 20260505084531 | 44 | 188 | 0.0 | 0.0 | 0.00 | 0.00 | 0.00 | 97 | 1009.5 |
| 20260505083534 | 44 | 188 | 0.0 | 0.0 | 0.00 | 0.00 | 0.00 | 97 | 1009.6 |
| 20260505082545 | 44 | 188 | 0.0 | 0.0 | 0.00 | 0.00 | 0.00 | 97 | 1009.6 |
| 20260505081530 | 44 | 188 | 0.0 | 0.0 | 0.00 | 0.00 | 0.00 | 97 | 1009.7 |
| 20260505075443 | 44 | 188 | 0.0 | 0.0 | 0.00 | 0.00 | 0.00 | 97 | 1009.6 |
| 20260505073244 | 45 | 189 | 0.0 | 0.0 | 0.00 | 0.00 | 0.00 | 97 | 1009.4 |
| 20260505072216 | 45 | 189 | 0.0 | 0.0 | 0.00 | 0.00 | 0.00 | 97 | 1009.4 |
| 20260505071239 | 45 | 188 | 0.0 | 0.0 | 0.00 | 0.00 | 0.00 | 96 | 1009.5 |